Time,TemperatureF,DewpointF,PressureIn,WindDirection,WindDirectionDegrees,WindSpeedMPH,WindSpeedGustMPH,Humidity,HourlyPrecipIn,Conditions,Clouds,dailyrainin,SoftwareType,DateUTC
2013-01-13 00:01:00,36.3,35.5,30.38,SSE,165,0.0,0.0,97,0.00,,,0.00,Wunderground v.1.15,2013-01-13 05:01:00,
2013-01-13 00:03:00,36.3,35.5,30.38,SSE,165,0.0,0.0,97,0.00,,,0.00,Wunderground v.1.15,2013-01-13 05:03:00,
2013-01-13 00:05:00,36.4,35.6,30.38,SSE,160,0.0,0.0,97,0.00,,,0.00,Wunderground v.1.15,2013-01-13 05:05:00,
2013-01-13 00:10:00,36.5,35.7,30.38,SSW,204,0.0,1.0,97,0.00,,,0.00,Wunderground v.1.15,2013-01-13 05:10:00,
2013-01-13 00:15:00,36.7,35.9,30.38,SSE,162,1.0,4.0,97,0.00,,,0.00,Wunderground v.1.15,2013-01-13 05:15:00,
2013-01-13 00:21:00,36.7,35.9,30.39,SW,218,1.0,1.0,97,0.00,,,0.00,Wunderground v.1.15,2013-01-13 05:21:00,
2013-01-13 00:26:00,36.7,35.9,30.39,SW,215,0.0,1.0,97,0.00,,,0.00,Wunderground v.1.15,2013-01-13 05:26:00,
2013-01-13 00:32:00,36.8,36.0,30.38,SSE,162,0.0,1.0,97,0.00,,,0.00,Wunderground v.1.15,2013-01-13 05:32:00,
2013-01-13 00:38:00,36.6,35.8,30.38,SSE,162,0.0,1.0,97,0.00,,,0.00,Wunderground v.1.15,2013-01-13 05:38:00,
2013-01-13 00:43:00,36.6,35.8,30.38,SW,225,0.0,0.0,97,0.00,,,0.00,Wunderground v.1.15,2013-01-13 05:43:00,
2013-01-13 00:49:00,36.4,35.6,30.38,SW,229,0.0,1.0,97,0.00,,,0.00,Wunderground v.1.15,2013-01-13 05:49:00,
2013-01-13 00:54:00,36.3,35.5,30.38,SSW,198,0.0,1.0,97,0.00,,,0.00,Wunderground v.1.15,2013-01-13 05:54:00,
2013-01-13 01:00:00,36.4,35.6,30.38,SSE,148,0.0,0.0,97,0.00,,,0.00,Wunderground v.1.15,2013-01-13 06:00:00,
2013-01-13 01:05:00,36.3,35.5,30.38,South,190,0.0,2.0,97,0.00,,,0.00,Wunderground v.1.15,2013-01-13 06:05:00,
2013-01-13 01:11:00,36.4,35.6,30.38,SW,222,0.0,0.0,97,0.00,,,0.00,Wunderground v.1.15,2013-01-13 06:11:00,
2013-01-13 01:16:00,36.4,35.6,30.39,SSW,195,0.0,3.0,97,0.00,,,0.00,Wunderground v.1.15,2013-01-13 06:16:00,
2013-01-13 01:22:00,36.5,35.7,30.39,SSW,212,0.0,0.0,97,0.00,,,0.00,Wunderground v.1.15,2013-01-13 06:22:00,
2013-01-13 01:27:00,36.4,35.6,30.40,SSW,212,0.0,0.0,97,0.00,,,0.00,Wunderground v.1.15,2013-01-13 06:27:00,
2013-01-13 01:33:00,36.3,35.5,30.40,SSW,203,0.0,1.0,97,0.00,,,0.00,Wunderground v.1.15,2013-01-13 06:33:00,
2013-01-13 01:39:00,36.2,35.4,30.40,SSW,203,0.0,1.0,97,0.00,,,0.00,Wunderground v.1.15,2013-01-13 06:39:00,
2013-01-13 01:44:00,36.3,35.5,30.40,WSW,242,0.0,0.0,97,0.00,,,0.00,Wunderground v.1.15,2013-01-13 06:44:00,
2013-01-13 01:50:00,36.3,35.5,30.40,South,191,0.0,0.0,97,0.00,,,0.00,Wunderground v.1.15,2013-01-13 06:50:00,
2013-01-13 01:55:00,36.4,35.6,30.41,SSW,212,0.0,0.0,97,0.00,,,0.00,Wunderground v.1.15,2013-01-13 06:55:00,
2013-01-13 02:01:00,36.2,35.4,30.41,SSW,212,0.0,0.0,97,0.00,,,0.00,Wunderground v.1.15,2013-01-13 07:01:00,
2013-01-13 02:06:00,36.1,35.3,30.41,SSW,212,0.0,0.0,97,0.00,,,0.00,Wunderground v.1.15,2013-01-13 07:06:00,
2013-01-13 02:12:00,36.2,35.4,30.42,SSW,212,0.0,0.0,97,0.00,,,0.00,Wunderground v.1.15,2013-01-13 07:12:00,
2013-01-13 02:17:00,36.3,35.5,30.42,SSW,212,0.0,0.0,97,0.00,,,0.00,Wunderground v.1.15,2013-01-13 07:17:00,
2013-01-13 02:23:00,36.3,35.5,30.42,SSW,212,0.0,0.0,97,0.00,,,0.00,Wunderground v.1.15,2013-01-13 07:23:00,
2013-01-13 02:29:00,36.2,35.4,30.41,SSW,212,0.0,0.0,97,0.00,,,0.00,Wunderground v.1.15,2013-01-13 07:29:00,
2013-01-13 02:34:00,36.3,35.5,30.41,SW,214,0.0,2.0,97,0.00,,,0.00,Wunderground v.1.15,2013-01-13 07:34:00,
2013-01-13 02:40:00,36.0,35.2,30.41,SW,235,0.0,0.0,97,0.00,,,0.00,Wunderground v.1.15,2013-01-13 07:40:00,
2013-01-13 02:45:00,35.6,34.8,30.42,WSW,242,0.0,0.0,97,0.00,,,0.00,Wunderground v.1.15,2013-01-13 07:45:00,
2013-01-13 02:51:00,35.6,34.8,30.42,SE,136,0.0,0.0,97,0.00,,,0.00,Wunderground v.1.15,2013-01-13 07:51:00,
2013-01-13 02:56:00,35.7,34.9,30.42,SE,136,0.0,0.0,97,0.00,,,0.00,Wunderground v.1.15,2013-01-13 07:56:00,
2013-01-13 03:02:00,35.6,34.8,30.41,SE,136,0.0,0.0,97,0.00,,,0.00,Wunderground v.1.15,2013-01-13 08:02:00,
2013-01-13 03:07:00,35.5,34.7,30.41,SE,136,0.0,0.0,97,0.00,,,0.00,Wunderground v.1.15,2013-01-13 08:07:00,
2013-01-13 03:13:00,35.7,34.9,30.41,SE,136,0.0,0.0,97,0.00,,,0.00,Wunderground v.1.15,2013-01-13 08:13:00,
2013-01-13 03:19:00,35.7,34.9,30.41,SE,136,0.0,0.0,97,0.00,,,0.00,Wunderground v.1.15,2013-01-13 08:19:00,
2013-01-13 03:24:00,35.7,34.9,30.40,SE,136,0.0,0.0,97,0.00,,,0.00,Wunderground v.1.15,2013-01-13 08:24:00,
2013-01-13 03:30:00,35.5,34.7,30.40,SSW,197,0.0,0.0,97,0.00,,,0.00,Wunderground v.1.15,2013-01-13 08:30:00,
2013-01-13 03:35:00,35.3,34.5,30.40,SSW,197,0.0,0.0,97,0.00,,,0.00,Wunderground v.1.15,2013-01-13 08:35:00,
2013-01-13 03:41:00,35.1,34.3,30.40,SSW,197,0.0,0.0,97,0.00,,,0.00,Wunderground v.1.15,2013-01-13 08:41:00,
2013-01-13 03:46:00,35.2,34.4,30.40,SSW,197,0.0,0.0,97,0.00,,,0.00,Wunderground v.1.15,2013-01-13 08:46:00,
2013-01-13 03:52:00,35.1,34.3,30.40,SSW,197,0.0,0.0,97,0.00,,,0.00,Wunderground v.1.15,2013-01-13 08:52:00,
2013-01-13 03:57:00,35.1,34.3,30.39,SSW,197,0.0,0.0,97,0.00,,,0.00,Wunderground v.1.15,2013-01-13 08:57:00,
2013-01-13 04:03:00,35.0,34.2,30.39,SSW,197,0.0,0.0,97,0.00,,,0.00,Wunderground v.1.15,2013-01-13 09:03:00,
2013-01-13 04:09:00,34.8,34.0,30.39,SW,222,0.0,0.0,97,0.00,,,0.00,Wunderground v.1.15,2013-01-13 09:09:00,
2013-01-13 04:15:00,34.9,34.1,30.38,SW,221,0.0,0.0,97,0.00,,,0.00,Wunderground v.1.15,2013-01-13 09:15:00,
2013-01-13 04:21:00,34.9,34.1,30.37,NE,47,0.0,1.0,97,0.00,,,0.00,Wunderground v.1.15,2013-01-13 09:21:00,
2013-01-13 04:26:00,34.8,34.0,30.37,NE,46,0.0,1.0,97,0.00,,,0.00,Wunderground v.1.15,2013-01-13 09:26:00,
2013-01-13 04:31:00,34.6,33.8,30.37,NE,47,0.0,0.0,97,0.00,,,0.00,Wunderground v.1.15,2013-01-13 09:31:00,
2013-01-13 04:37:00,34.6,33.8,30.36,NE,46,0.0,0.0,97,0.00,,,0.00,Wunderground v.1.15,2013-01-13 09:37:00,
2013-01-13 04:43:00,34.6,33.8,30.36,WNW,293,0.0,0.0,97,0.00,,,0.00,Wunderground v.1.15,2013-01-13 09:43:00,
2013-01-13 04:49:00,34.5,33.7,30.36,WNW,293,0.0,1.0,97,0.00,,,0.00,Wunderground v.1.15,2013-01-13 09:49:00,
2013-01-13 04:54:00,34.5,33.7,30.36,WNW,294,0.0,0.0,97,0.00,,,0.00,Wunderground v.1.15,2013-01-13 09:54:00,
2013-01-13 05:00:00,34.4,33.6,30.35,WNW,294,0.0,0.0,97,0.00,,,0.00,Wunderground v.1.15,2013-01-13 10:00:00,
2013-01-13 05:05:00,34.4,33.6,30.35,WNW,294,0.0,0.0,97,0.00,,,0.00,Wunderground v.1.15,2013-01-13 10:05:00,
2013-01-13 05:11:00,33.9,33.1,30.36,WSW,256,0.0,0.0,97,0.00,,,0.01,Wunderground v.1.15,2013-01-13 10:11:00,
2013-01-13 05:17:00,33.6,32.8,30.36,WSW,250,0.0,0.0,97,0.00,,,0.01,Wunderground v.1.15,2013-01-13 10:17:00,
2013-01-13 05:22:00,33.7,32.9,30.36,NNE,24,0.0,2.0,97,0.00,,,0.01,Wunderground v.1.15,2013-01-13 10:22:00,
2013-01-13 05:28:00,34.1,33.3,30.38,SW,231,1.0,2.0,97,0.00,,,0.01,Wunderground v.1.15,2013-01-13 10:28:00,
2013-01-13 05:33:00,33.9,33.1,30.39,WSW,242,1.0,1.0,97,0.00,,,0.01,Wunderground v.1.15,2013-01-13 10:33:00,
2013-01-13 05:39:00,34.7,33.9,30.38,North,353,1.0,4.0,97,0.00,,,0.01,Wunderground v.1.15,2013-01-13 10:39:00,
2013-01-13 05:44:00,35.1,34.3,30.38,ENE,70,2.0,2.0,97,0.00,,,0.01,Wunderground v.1.15,2013-01-13 10:44:00,
2013-01-13 05:50:00,35.1,34.3,30.38,ENE,69,1.0,1.0,97,0.00,,,0.01,Wunderground v.1.15,2013-01-13 10:50:00,
2013-01-13 05:55:00,35.1,34.3,30.37,ENE,69,0.0,1.0,97,0.00,,,0.01,Wunderground v.1.15,2013-01-13 10:55:00,
2013-01-13 06:01:00,35.0,34.2,30.37,ENE,69,0.0,0.0,97,0.00,,,0.01,Wunderground v.1.15,2013-01-13 11:01:00,
2013-01-13 06:06:00,34.9,34.1,30.37,ENE,70,0.0,0.0,97,0.00,,,0.01,Wunderground v.1.15,2013-01-13 11:06:00,
2013-01-13 06:12:00,35.0,34.2,30.37,ENE,69,0.0,0.0,97,0.00,,,0.01,Wunderground v.1.15,2013-01-13 11:12:00,
2013-01-13 06:17:00,34.9,34.1,30.36,ENE,69,0.0,0.0,97,0.00,,,0.01,Wunderground v.1.15,2013-01-13 11:17:00,
2013-01-13 06:23:00,34.8,34.0,30.37,ENE,70,0.0,0.0,97,0.00,,,0.01,Wunderground v.1.15,2013-01-13 11:23:00,
2013-01-13 06:29:00,34.8,34.0,30.38,ENE,69,0.0,0.0,97,0.00,,,0.01,Wunderground v.1.15,2013-01-13 11:29:00,
2013-01-13 06:34:00,34.8,34.0,30.37,ENE,70,0.0,0.0,97,0.00,,,0.01,Wunderground v.1.15,2013-01-13 11:34:00,
2013-01-13 06:40:00,34.7,33.9,30.38,ENE,69,0.0,0.0,97,0.00,,,0.01,Wunderground v.1.15,2013-01-13 11:40:00,
2013-01-13 06:45:00,34.6,33.8,30.37,ENE,70,0.0,0.0,97,0.00,,,0.01,Wunderground v.1.15,2013-01-13 11:45:00,
2013-01-13 06:51:00,34.5,33.7,30.37,ENE,69,0.0,0.0,97,0.00,,,0.01,Wunderground v.1.15,2013-01-13 11:51:00,
2013-01-13 06:56:00,34.4,33.6,30.36,ENE,70,0.0,0.0,97,0.00,,,0.01,Wunderground v.1.15,2013-01-13 11:56:00,
2013-01-13 07:02:00,34.2,33.4,30.36,ENE,69,0.0,0.0,97,0.00,,,0.01,Wunderground v.1.15,2013-01-13 12:02:00,
2013-01-13 07:07:00,34.1,33.3,30.36,ENE,70,0.0,0.0,97,0.00,,,0.01,Wunderground v.1.15,2013-01-13 12:07:00,
2013-01-13 07:13:00,34.3,33.5,30.37,ENE,69,0.0,0.0,97,0.00,,,0.01,Wunderground v.1.15,2013-01-13 12:13:00,
2013-01-13 07:19:00,34.0,33.2,30.37,ENE,70,0.0,0.0,97,0.00,,,0.01,Wunderground v.1.15,2013-01-13 12:19:00,
2013-01-13 07:25:00,33.9,33.1,30.37,ENE,69,0.0,0.0,97,0.00,,,0.01,Wunderground v.1.15,2013-01-13 12:25:00,
2013-01-13 07:30:00,33.9,33.1,30.38,ENE,69,0.0,0.0,97,0.00,,,0.01,Wunderground v.1.15,2013-01-13 12:30:00,
2013-01-13 07:35:00,33.9,33.1,30.38,ENE,69,0.0,0.0,97,0.00,,,0.01,Wunderground v.1.15,2013-01-13 12:35:00,
2013-01-13 07:41:00,33.9,33.1,30.37,ENE,69,0.0,0.0,97,0.00,,,0.01,Wunderground v.1.15,2013-01-13 12:41:00,
2013-01-13 07:46:00,34.1,33.3,30.38,ENE,69,0.0,0.0,97,0.00,,,0.01,Wunderground v.1.15,2013-01-13 12:46:00,
2013-01-13 07:52:00,34.1,33.3,30.38,ENE,69,0.0,0.0,97,0.00,,,0.01,Wunderground v.1.15,2013-01-13 12:52:00,
2013-01-13 07:57:00,34.1,33.3,30.37,ENE,70,0.0,0.0,97,0.00,,,0.01,Wunderground v.1.15,2013-01-13 12:57:00,
2013-01-13 08:03:00,34.2,33.4,30.37,ENE,70,0.0,0.0,97,0.00,,,0.01,Wunderground v.1.15,2013-01-13 13:03:00,
2013-01-13 08:09:00,34.3,33.5,30.37,ENE,69,0.0,0.0,97,0.00,,,0.01,Wunderground v.1.15,2013-01-13 13:09:00,
2013-01-13 08:14:00,34.4,33.6,30.37,SSE,167,0.0,0.0,97,0.00,,,0.01,Wunderground v.1.15,2013-01-13 13:14:00,
2013-01-13 08:20:00,34.6,33.8,30.37,East,86,0.0,1.0,97,0.00,,,0.01,Wunderground v.1.15,2013-01-13 13:20:00,
2013-01-13 08:25:00,34.7,33.9,30.37,East,86,0.0,1.0,97,0.00,,,0.01,Wunderground v.1.15,2013-01-13 13:25:00,
2013-01-13 08:31:00,34.8,34.0,30.38,East,93,0.0,0.0,97,0.00,,,0.01,Wunderground v.1.15,2013-01-13 13:31:00,
2013-01-13 08:36:00,34.9,34.1,30.38,SW,221,0.0,0.0,97,0.00,,,0.01,Wunderground v.1.15,2013-01-13 13:36:00,
2013-01-13 08:41:00,35.0,34.2,30.37,SW,221,0.0,0.0,97,0.00,,,0.01,Wunderground v.1.15,2013-01-13 13:41:00,
2013-01-13 08:46:00,34.9,34.1,30.38,SE,145,0.0,1.0,97,0.00,,,0.01,Wunderground v.1.15,2013-01-13 13:46:00,
2013-01-13 08:52:00,34.7,33.9,30.38,South,179,0.0,0.0,97,0.00,,,0.01,Wunderground v.1.15,2013-01-13 13:52:00,
2013-01-13 08:58:00,34.6,33.8,30.38,SE,145,0.0,2.0,97,0.00,,,0.01,Wunderground v.1.15,2013-01-13 13:58:00,
2013-01-13 09:03:00,34.6,33.8,30.38,SSW,203,0.0,3.0,97,0.00,,,0.01,Wunderground v.1.15,2013-01-13 14:03:00,
2013-01-13 09:09:00,34.7,33.9,30.38,South,172,1.0,3.0,97,0.00,,,0.01,Wunderground v.1.15,2013-01-13 14:09:00,
2013-01-13 09:14:00,34.8,34.0,30.38,SE,130,2.0,3.0,97,0.00,,,0.01,Wunderground v.1.15,2013-01-13 14:14:00,
2013-01-13 09:20:00,34.7,33.9,30.37,SSE,154,1.0,1.0,97,0.00,,,0.01,Wunderground v.1.15,2013-01-13 14:20:00,
2013-01-13 09:25:00,34.8,34.0,30.38,South,184,1.0,4.0,97,0.00,,,0.01,Wunderground v.1.15,2013-01-13 14:25:00,
2013-01-13 09:31:00,34.9,34.1,30.39,SW,232,1.0,1.0,97,0.00,,,0.01,Wunderground v.1.15,2013-01-13 14:31:00,
2013-01-13 09:37:00,34.9,34.1,30.38,SSE,158,1.0,2.0,97,0.00,,,0.01,Wunderground v.1.15,2013-01-13 14:37:00,
2013-01-13 09:42:00,34.9,34.1,30.38,South,177,1.0,1.0,97,0.00,,,0.01,Wunderground v.1.15,2013-01-13 14:42:00,
2013-01-13 09:48:00,35.1,34.3,30.37,SSW,201,1.0,1.0,97,0.00,,,0.01,Wunderground v.1.15,2013-01-13 14:48:00,
2013-01-13 09:53:00,35.2,34.4,30.38,SW,214,0.0,3.0,97,0.00,,,0.01,Wunderground v.1.15,2013-01-13 14:53:00,
2013-01-13 09:59:00,35.2,34.4,30.37,SE,130,1.0,3.0,97,0.00,,,0.01,Wunderground v.1.15,2013-01-13 14:59:00,
2013-01-13 10:04:00,35.4,34.6,30.37,SSE,162,1.0,2.0,97,0.00,,,0.01,Wunderground v.1.15,2013-01-13 15:04:00,
2013-01-13 10:10:00,35.3,34.5,30.37,SE,132,0.0,0.0,97,0.00,,,0.01,Wunderground v.1.15,2013-01-13 15:10:00,
2013-01-13 10:15:00,35.3,34.5,30.37,SSE,157,1.0,1.0,97,0.00,,,0.01,Wunderground v.1.15,2013-01-13 15:15:00,
2013-01-13 10:21:00,35.4,34.6,30.36,East,79,0.0,0.0,97,0.00,,,0.01,Wunderground v.1.15,2013-01-13 15:21:00,
2013-01-13 10:26:00,35.6,34.8,30.36,SSE,161,0.0,2.0,97,0.00,,,0.01,Wunderground v.1.15,2013-01-13 15:26:00,
2013-01-13 10:32:00,35.6,34.8,30.36,SSE,154,0.0,0.0,97,0.00,,,0.01,Wunderground v.1.15,2013-01-13 15:32:00,
2013-01-13 10:38:00,35.7,34.9,30.36,SSE,152,0.0,1.0,97,0.00,,,0.01,Wunderground v.1.15,2013-01-13 15:38:00,
2013-01-13 10:43:00,35.8,35.0,30.36,East,80,0.0,1.0,97,0.00,,,0.01,Wunderground v.1.15,2013-01-13 15:43:00,
2013-01-13 10:49:00,35.7,34.9,30.34,NE,55,0.0,2.0,97,0.00,,,0.01,Wunderground v.1.15,2013-01-13 15:49:00,
2013-01-13 10:54:00,35.8,35.0,30.34,NE,55,1.0,1.0,97,0.00,,,0.01,Wunderground v.1.15,2013-01-13 15:54:00,
2013-01-13 11:00:00,35.7,34.9,30.34,NNW,338,1.0,1.0,97,0.00,,,0.01,Wunderground v.1.15,2013-01-13 16:00:00,
2013-01-13 11:05:00,35.7,34.7,30.34,ENE,69,1.0,2.0,96,0.00,,,0.01,Wunderground v.1.15,2013-01-13 16:05:00,
2013-01-13 11:11:00,35.7,34.9,30.33,East,79,1.0,2.0,97,0.00,,,0.01,Wunderground v.1.15,2013-01-13 16:11:00,
2013-01-13 11:16:00,36.0,35.2,30.33,SSE,166,1.0,2.0,97,0.00,,,0.01,Wunderground v.1.15,2013-01-13 16:16:00,
2013-01-13 11:22:00,36.1,35.3,30.33,South,180,0.0,1.0,97,0.00,,,0.01,Wunderground v.1.15,2013-01-13 16:22:00,
2013-01-13 11:27:00,36.1,35.3,30.33,South,187,0.0,1.0,97,0.00,,,0.01,Wunderground v.1.15,2013-01-13 16:27:00,
2013-01-13 11:33:00,36.1,35.3,30.32,SE,128,0.0,1.0,97,0.00,,,0.01,Wunderground v.1.15,2013-01-13 16:33:00,
2013-01-13 11:39:00,36.1,35.3,30.32,WSW,246,1.0,2.0,97,0.00,,,0.01,Wunderground v.1.15,2013-01-13 16:39:00,
2013-01-13 11:44:00,36.3,35.5,30.32,NW,323,1.0,2.0,97,0.00,,,0.01,Wunderground v.1.15,2013-01-13 16:44:00,
2013-01-13 11:50:00,36.5,35.7,30.31,East,85,1.0,2.0,97,0.00,,,0.01,Wunderground v.1.15,2013-01-13 16:50:00,
2013-01-13 11:55:00,36.5,35.7,30.31,ENE,75,1.0,3.0,97,0.00,,,0.01,Wunderground v.1.15,2013-01-13 16:55:00,
2013-01-13 12:01:00,36.5,35.7,30.31,SSE,159,1.0,2.0,97,0.00,,,0.01,Wunderground v.1.15,2013-01-13 17:01:00,
2013-01-13 12:06:00,36.6,35.8,30.30,SW,232,1.0,2.0,97,0.00,,,0.01,Wunderground v.1.15,2013-01-13 17:06:00,
2013-01-13 12:12:00,36.6,35.8,30.31,East,88,0.0,2.0,97,0.00,,,0.01,Wunderground v.1.15,2013-01-13 17:12:00,
2013-01-13 12:17:00,36.5,35.7,30.31,ESE,110,1.0,2.0,97,0.00,,,0.01,Wunderground v.1.15,2013-01-13 17:17:00,
2013-01-13 12:23:00,36.5,35.7,30.29,ESE,105,1.0,2.0,97,0.00,,,0.01,Wunderground v.1.15,2013-01-13 17:23:00,
2013-01-13 12:29:00,36.5,35.7,30.29,SE,127,1.0,2.0,97,0.00,,,0.01,Wunderground v.1.15,2013-01-13 17:29:00,
2013-01-13 12:35:00,36.6,35.8,30.29,East,85,1.0,1.0,97,0.00,,,0.01,Wunderground v.1.15,2013-01-13 17:35:00,
2013-01-13 12:41:00,37.0,36.2,30.29,East,86,0.0,1.0,97,0.00,,,0.01,Wunderground v.1.15,2013-01-13 17:41:00,
2013-01-13 12:46:00,37.4,36.6,30.28,South,179,0.0,1.0,97,0.00,,,0.01,Wunderground v.1.15,2013-01-13 17:46:00,
2013-01-13 12:52:00,37.7,36.9,30.27,ENE,70,0.0,1.0,97,0.00,,,0.01,Wunderground v.1.15,2013-01-13 17:52:00,
2013-01-13 12:57:00,37.9,37.1,30.26,East,98,0.0,2.0,97,0.00,,,0.01,Wunderground v.1.15,2013-01-13 17:57:00,
2013-01-13 13:03:00,38.0,37.0,30.26,ENE,68,0.0,1.0,96,0.00,,,0.01,Wunderground v.1.15,2013-01-13 18:03:00,
2013-01-13 13:09:00,38.1,37.1,30.25,ESE,112,0.0,1.0,96,0.00,,,0.01,Wunderground v.1.15,2013-01-13 18:09:00,
2013-01-13 13:14:00,38.3,37.3,30.25,NE,44,0.0,2.0,96,0.00,,,0.01,Wunderground v.1.15,2013-01-13 18:14:00,
2013-01-13 13:19:00,38.4,37.4,30.25,ESE,103,0.0,2.0,96,0.00,,,0.01,Wunderground v.1.15,2013-01-13 18:19:00,
2013-01-13 13:25:00,38.4,37.4,30.25,East,94,1.0,1.0,96,0.00,,,0.01,Wunderground v.1.15,2013-01-13 18:25:00,
2013-01-13 13:31:00,38.5,37.5,30.25,WSW,240,1.0,1.0,96,0.00,,,0.01,Wunderground v.1.15,2013-01-13 18:31:00,
2013-01-13 13:36:00,38.6,37.6,30.25,SW,231,0.0,1.0,96,0.00,,,0.01,Wunderground v.1.15,2013-01-13 18:36:00,
2013-01-13 13:42:00,38.7,37.7,30.25,East,91,0.0,0.0,96,0.00,,,0.01,Wunderground v.1.15,2013-01-13 18:42:00,
2013-01-13 13:47:00,38.6,37.6,30.25,East,82,0.0,1.0,96,0.00,,,0.01,Wunderground v.1.15,2013-01-13 18:47:00,
2013-01-13 13:53:00,38.6,37.6,30.24,ESE,107,1.0,4.0,96,0.00,,,0.01,Wunderground v.1.15,2013-01-13 18:53:00,
2013-01-13 13:59:00,38.7,37.7,30.23,ESE,116,2.0,4.0,96,0.00,,,0.01,Wunderground v.1.15,2013-01-13 18:59:00,
2013-01-13 14:05:00,38.7,37.7,30.23,ESE,103,1.0,2.0,96,0.00,,,0.01,Wunderground v.1.15,2013-01-13 19:05:00,
2013-01-13 14:10:00,38.7,37.7,30.23,NE,47,1.0,1.0,96,0.00,,,0.01,Wunderground v.1.15,2013-01-13 19:10:00,
2013-01-13 14:16:00,38.7,37.7,30.22,SSW,200,1.0,2.0,96,0.00,,,0.01,Wunderground v.1.15,2013-01-13 19:16:00,
2013-01-13 14:21:00,38.7,37.7,30.22,East,91,1.0,4.0,96,0.00,,,0.01,Wunderground v.1.15,2013-01-13 19:21:00,
2013-01-13 14:27:00,38.9,37.9,30.22,ESE,110,1.0,4.0,96,0.00,,,0.01,Wunderground v.1.15,2013-01-13 19:27:00,
2013-01-13 14:33:00,39.0,38.0,30.22,East,82,0.0,1.0,96,0.00,,,0.01,Wunderground v.1.15,2013-01-13 19:33:00,
2013-01-13 14:39:00,39.1,38.1,30.21,East,99,1.0,1.0,96,0.00,,,0.01,Wunderground v.1.15,2013-01-13 19:39:00,
2013-01-13 14:44:00,39.3,38.3,30.21,SW,231,1.0,1.0,96,0.00,,,0.01,Wunderground v.1.15,2013-01-13 19:44:00,
2013-01-13 14:50:00,39.5,38.5,30.20,WSW,243,0.0,0.0,96,0.00,,,0.01,Wunderground v.1.15,2013-01-13 19:50:00,
2013-01-13 14:56:00,39.7,38.7,30.20,SW,233,0.0,0.0,96,0.00,,,0.01,Wunderground v.1.15,2013-01-13 19:56:00,
2013-01-13 15:01:00,39.7,38.4,30.20,East,98,0.0,0.0,95,0.00,,,0.01,Wunderground v.1.15,2013-01-13 20:01:00,
2013-01-13 15:06:00,39.7,38.4,30.20,ENE,74,0.0,1.0,95,0.00,,,0.01,Wunderground v.1.15,2013-01-13 20:06:00,
2013-01-13 15:12:00,39.7,38.4,30.20,East,85,1.0,2.0,95,0.00,,,0.01,Wunderground v.1.15,2013-01-13 20:12:00,
2013-01-13 15:17:00,39.9,38.9,30.20,East,93,1.0,2.0,96,0.00,,,0.01,Wunderground v.1.15,2013-01-13 20:17:00,
2013-01-13 15:23:00,40.1,38.8,30.20,East,100,1.0,1.0,95,0.00,,,0.01,Wunderground v.1.15,2013-01-13 20:23:00,
2013-01-13 15:29:00,40.2,38.9,30.21,ESE,117,0.0,1.0,95,0.00,,,0.01,Wunderground v.1.15,2013-01-13 20:29:00,
2013-01-13 15:34:00,40.2,38.9,30.21,NE,55,0.0,0.0,95,0.00,,,0.01,Wunderground v.1.15,2013-01-13 20:34:00,
2013-01-13 15:40:00,40.3,39.0,30.20,SSW,200,0.0,0.0,95,0.00,,,0.01,Wunderground v.1.15,2013-01-13 20:40:00,
2013-01-13 15:46:00,40.2,38.9,30.20,SW,225,0.0,1.0,95,0.00,,,0.01,Wunderground v.1.15,2013-01-13 20:46:00,
2013-01-13 15:52:00,39.7,38.4,30.22,WNW,284,1.0,2.0,95,0.00,,,0.01,Wunderground v.1.15,2013-01-13 20:52:00,
2013-01-13 15:57:00,39.4,38.1,30.22,WNW,284,1.0,2.0,95,0.00,,,0.01,Wunderground v.1.15,2013-01-13 20:57:00,
2013-01-13 16:03:00,39.1,37.8,30.22,North,359,1.0,2.0,95,0.00,,,0.01,Wunderground v.1.15,2013-01-13 21:03:00,
2013-01-13 16:09:00,39.3,38.3,30.22,ENE,57,1.0,2.0,96,0.00,,,0.01,Wunderground v.1.15,2013-01-13 21:09:00,
2013-01-13 16:14:00,39.3,38.3,30.22,SSE,160,1.0,2.0,96,0.00,,,0.01,Wunderground v.1.15,2013-01-13 21:14:00,
2013-01-13 16:20:00,39.2,38.2,30.22,SSE,160,0.0,0.0,96,0.00,,,0.01,Wunderground v.1.15,2013-01-13 21:20:00,
2013-01-13 16:25:00,39.1,38.1,30.23,North,356,0.0,1.0,96,0.00,,,0.01,Wunderground v.1.15,2013-01-13 21:25:00,
2013-01-13 16:31:00,39.3,38.3,30.23,NNW,345,1.0,2.0,96,0.00,,,0.01,Wunderground v.1.15,2013-01-13 21:31:00,
2013-01-13 16:36:00,39.6,38.8,30.23,ESE,121,1.0,2.0,97,0.00,,,0.01,Wunderground v.1.15,2013-01-13 21:36:00,
2013-01-13 16:42:00,39.6,38.6,30.22,East,91,0.0,1.0,96,0.00,,,0.01,Wunderground v.1.15,2013-01-13 21:42:00,
2013-01-13 16:47:00,40.0,39.2,30.23,East,81,0.0,1.0,97,0.00,,,0.01,Wunderground v.1.15,2013-01-13 21:47:00,
2013-01-13 16:53:00,40.5,39.7,30.23,East,95,0.0,2.0,97,0.00,,,0.01,Wunderground v.1.15,2013-01-13 21:53:00,
2013-01-13 16:59:00,40.8,40.0,30.23,ENE,64,1.0,2.0,97,0.00,,,0.01,Wunderground v.1.15,2013-01-13 21:59:00,
2013-01-13 17:04:00,40.9,40.1,30.22,ENE,60,2.0,2.0,97,0.00,,,0.01,Wunderground v.1.15,2013-01-13 22:04:00,
2013-01-13 17:10:00,40.9,39.8,30.22,NE,44,2.0,2.0,96,0.00,,,0.01,Wunderground v.1.15,2013-01-13 22:10:00,
2013-01-13 17:15:00,41.0,39.9,30.22,NE,52,2.0,3.0,96,0.00,,,0.01,Wunderground v.1.15,2013-01-13 22:15:00,
2013-01-13 17:20:00,41.2,40.1,30.23,ENE,75,1.0,2.0,96,0.00,,,0.01,Wunderground v.1.15,2013-01-13 22:20:00,
2013-01-13 17:25:00,41.2,40.1,30.22,NNE,22,1.0,2.0,96,0.00,,,0.01,Wunderground v.1.15,2013-01-13 22:25:00,
2013-01-13 17:31:00,41.4,40.3,30.22,ENE,63,2.0,5.0,96,0.00,,,0.01,Wunderground v.1.15,2013-01-13 22:31:00,
2013-01-13 17:36:00,41.6,40.5,30.22,East,83,3.0,5.0,96,0.00,,,0.01,Wunderground v.1.15,2013-01-13 22:36:00,
2013-01-13 17:42:00,41.7,40.6,30.22,ESE,117,1.0,2.0,96,0.00,,,0.01,Wunderground v.1.15,2013-01-13 22:42:00,
2013-01-13 17:47:00,41.7,40.6,30.22,West,272,0.0,2.0,96,0.00,,,0.01,Wunderground v.1.15,2013-01-13 22:47:00,
2013-01-13 17:53:00,41.7,40.6,30.23,WSW,256,0.0,1.0,96,0.00,,,0.01,Wunderground v.1.15,2013-01-13 22:53:00,
2013-01-13 17:59:00,41.7,40.6,30.23,SSE,148,0.0,1.0,96,0.00,,,0.01,Wunderground v.1.15,2013-01-13 22:59:00,
2013-01-13 18:04:00,41.7,40.6,30.23,SE,124,0.0,1.0,96,0.00,,,0.01,Wunderground v.1.15,2013-01-13 23:04:00,
2013-01-13 18:10:00,41.4,40.3,30.22,ESE,105,0.0,0.0,96,0.00,,,0.01,Wunderground v.1.15,2013-01-13 23:10:00,
2013-01-13 18:15:00,41.2,40.1,30.23,SW,224,0.0,1.0,96,0.00,,,0.01,Wunderground v.1.15,2013-01-13 23:15:00,
2013-01-13 18:21:00,40.8,39.7,30.23,East,94,0.0,0.0,96,0.00,,,0.01,Wunderground v.1.15,2013-01-13 23:21:00,
2013-01-13 18:26:00,41.0,39.9,30.23,ENE,57,1.0,3.0,96,0.00,,,0.01,Wunderground v.1.15,2013-01-13 23:26:00,
2013-01-13 18:32:00,41.1,40.3,30.22,NE,42,2.0,2.0,97,0.00,,,0.01,Wunderground v.1.15,2013-01-13 23:32:00,
2013-01-13 18:38:00,41.3,40.5,30.23,ENE,72,3.0,3.0,97,0.00,,,0.01,Wunderground v.1.15,2013-01-13 23:38:00,
2013-01-13 18:43:00,41.6,40.8,30.22,ESE,106,2.0,3.0,97,0.00,,,0.01,Wunderground v.1.15,2013-01-13 23:43:00,
2013-01-13 18:49:00,41.3,40.5,30.23,ESE,108,0.0,3.0,97,0.00,,,0.01,Wunderground v.1.15,2013-01-13 23:49:00,
2013-01-13 18:54:00,40.9,39.8,30.22,ESE,108,0.0,1.0,96,0.00,,,0.01,Wunderground v.1.15,2013-01-13 23:54:00,
2013-01-13 19:00:00,40.6,39.5,30.23,SW,222,0.0,0.0,96,0.00,,,0.01,Wunderground v.1.15,2013-01-14 00:00:00,
2013-01-13 19:06:00,40.5,39.4,30.23,SSW,198,0.0,0.0,96,0.00,,,0.01,Wunderground v.1.15,2013-01-14 00:06:00,
2013-01-13 19:12:00,40.6,39.8,30.23,ENE,65,0.0,2.0,97,0.00,,,0.01,Wunderground v.1.15,2013-01-14 00:12:00,
2013-01-13 19:17:00,41.1,40.3,30.22,East,81,1.0,3.0,97,0.00,,,0.01,Wunderground v.1.15,2013-01-14 00:17:00,
2013-01-13 19:23:00,41.7,40.9,30.22,East,95,2.0,2.0,97,0.00,,,0.01,Wunderground v.1.15,2013-01-14 00:23:00,
2013-01-13 19:29:00,41.7,40.9,30.22,East,97,1.0,2.0,97,0.00,,,0.01,Wunderground v.1.15,2013-01-14 00:29:00,
2013-01-13 19:34:00,41.5,40.7,30.23,ESE,103,0.0,1.0,97,0.00,,,0.01,Wunderground v.1.15,2013-01-14 00:34:00,
2013-01-13 19:40:00,41.5,40.7,30.23,East,85,0.0,1.0,97,0.00,,,0.01,Wunderground v.1.15,2013-01-14 00:40:00,
2013-01-13 19:45:00,41.6,40.8,30.23,ESE,110,1.0,4.0,97,0.00,,,0.01,Wunderground v.1.15,2013-01-14 00:45:00,
2013-01-13 19:51:00,41.6,40.8,30.22,SW,232,1.0,1.0,97,0.00,,,0.01,Wunderground v.1.15,2013-01-14 00:51:00,
2013-01-13 19:56:00,41.4,40.6,30.22,South,188,0.0,2.0,97,0.00,,,0.01,Wunderground v.1.15,2013-01-14 00:56:00,
2013-01-13 20:02:00,41.1,40.3,30.22,SE,134,0.0,0.0,97,0.00,,,0.01,Wunderground v.1.15,2013-01-14 01:02:00,
2013-01-13 20:08:00,41.2,40.4,30.21,ESE,108,1.0,4.0,97,0.00,,,0.01,Wunderground v.1.15,2013-01-14 01:08:00,
2013-01-13 20:13:00,41.3,40.5,30.21,East,96,1.0,1.0,97,0.00,,,0.01,Wunderground v.1.15,2013-01-14 01:13:00,
2013-01-13 20:19:00,41.4,40.6,30.21,ENE,69,1.0,3.0,97,0.00,,,0.01,Wunderground v.1.15,2013-01-14 01:19:00,
2013-01-13 20:25:00,41.5,40.7,30.21,WSW,256,1.0,5.0,97,0.00,,,0.01,Wunderground v.1.15,2013-01-14 01:25:00,
2013-01-13 20:31:00,41.4,40.6,30.21,SE,139,0.0,1.0,97,0.00,,,0.01,Wunderground v.1.15,2013-01-14 01:31:00,
2013-01-13 20:36:00,41.3,40.5,30.22,NNE,19,0.0,1.0,97,0.00,,,0.01,Wunderground v.1.15,2013-01-14 01:36:00,
2013-01-13 20:42:00,41.4,40.6,30.22,East,100,1.0,1.0,97,0.00,,,0.01,Wunderground v.1.15,2013-01-14 01:42:00,
2013-01-13 20:47:00,41.6,40.8,30.22,ENE,61,1.0,2.0,97,0.00,,,0.01,Wunderground v.1.15,2013-01-14 01:47:00,
2013-01-13 20:53:00,41.8,41.0,30.22,East,79,1.0,2.0,97,0.00,,,0.01,Wunderground v.1.15,2013-01-14 01:53:00,
2013-01-13 20:59:00,41.9,41.1,30.21,East,86,1.0,2.0,97,0.00,,,0.01,Wunderground v.1.15,2013-01-14 01:59:00,
2013-01-13 21:04:00,41.9,41.1,30.21,East,91,1.0,2.0,97,0.00,,,0.01,Wunderground v.1.15,2013-01-14 02:04:00,
2013-01-13 21:10:00,42.0,41.2,30.21,East,84,1.0,1.0,97,0.00,,,0.01,Wunderground v.1.15,2013-01-14 02:10:00,
2013-01-13 21:15:00,41.6,40.8,30.21,East,90,1.0,1.0,97,0.00,,,0.01,Wunderground v.1.15,2013-01-14 02:15:00,
2013-01-13 21:21:00,41.4,40.6,30.21,East,91,0.0,0.0,97,0.00,,,0.01,Wunderground v.1.15,2013-01-14 02:21:00,
2013-01-13 21:26:00,41.4,40.6,30.21,East,91,0.0,0.0,97,0.00,,,0.01,Wunderground v.1.15,2013-01-14 02:26:00,
2013-01-13 21:32:00,41.4,40.6,30.20,NE,56,0.0,1.0,97,0.00,,,0.01,Wunderground v.1.15,2013-01-14 02:32:00,
2013-01-13 21:37:00,41.5,40.7,30.20,ESE,103,0.0,2.0,97,0.00,,,0.01,Wunderground v.1.15,2013-01-14 02:37:00,
2013-01-13 21:43:00,41.4,40.6,30.20,ESE,103,0.0,0.0,97,0.00,,,0.01,Wunderground v.1.15,2013-01-14 02:43:00,
2013-01-13 21:49:00,41.3,40.5,30.20,ESE,103,0.0,0.0,97,0.00,,,0.01,Wunderground v.1.15,2013-01-14 02:49:00,
2013-01-13 21:54:00,41.2,40.4,30.20,ESE,103,0.0,0.0,97,0.00,,,0.01,Wunderground v.1.15,2013-01-14 02:54:00,
2013-01-13 22:00:00,41.5,40.7,30.20,ENE,75,0.0,0.0,97,0.00,,,0.01,Wunderground v.1.15,2013-01-14 03:00:00,
2013-01-13 22:05:00,41.6,40.8,30.19,ENE,73,0.0,1.0,97,0.00,,,0.01,Wunderground v.1.15,2013-01-14 03:05:00,
2013-01-13 22:11:00,41.4,40.6,30.20,East,99,0.0,0.0,97,0.00,,,0.01,Wunderground v.1.15,2013-01-14 03:11:00,
2013-01-13 22:16:00,40.7,39.9,30.20,East,99,0.0,0.0,97,0.00,,,0.01,Wunderground v.1.15,2013-01-14 03:16:00,
2013-01-13 22:22:00,40.6,39.8,30.20,East,99,0.0,0.0,97,0.00,,,0.01,Wunderground v.1.15,2013-01-14 03:22:00,
2013-01-13 22:28:00,40.6,39.8,30.21,East,99,0.0,0.0,97,0.00,,,0.01,Wunderground v.1.15,2013-01-14 03:28:00,
2013-01-13 22:33:00,40.7,39.9,30.21,SW,217,0.0,0.0,97,0.00,,,0.01,Wunderground v.1.15,2013-01-14 03:33:00,
2013-01-13 22:39:00,40.6,39.8,30.20,SW,217,0.0,0.0,97,0.00,,,0.01,Wunderground v.1.15,2013-01-14 03:39:00,
2013-01-13 22:44:00,40.4,39.6,30.20,SW,217,0.0,0.0,97,0.00,,,0.01,Wunderground v.1.15,2013-01-14 03:44:00,
2013-01-13 22:50:00,40.0,39.2,30.20,SW,217,0.0,0.0,97,0.00,,,0.01,Wunderground v.1.15,2013-01-14 03:50:00,
2013-01-13 22:55:00,40.0,39.2,30.20,SW,217,0.0,0.0,97,0.00,,,0.01,Wunderground v.1.15,2013-01-14 03:55:00,
2013-01-13 23:01:00,40.1,39.3,30.21,SW,217,0.0,0.0,97,0.00,,,0.01,Wunderground v.1.15,2013-01-14 04:01:00,
2013-01-13 23:06:00,40.2,39.4,30.20,SW,217,0.0,0.0,97,0.00,,,0.01,Wunderground v.1.15,2013-01-14 04:06:00,
2013-01-13 23:12:00,40.3,39.5,30.21,SW,217,0.0,0.0,97,0.00,,,0.01,Wunderground v.1.15,2013-01-14 04:12:00,
2013-01-13 23:17:00,40.1,39.3,30.21,SW,217,0.0,0.0,97,0.00,,,0.01,Wunderground v.1.15,2013-01-14 04:17:00,
2013-01-13 23:23:00,40.2,39.4,30.21,SW,217,0.0,0.0,97,0.00,,,0.01,Wunderground v.1.15,2013-01-14 04:23:00,
2013-01-13 23:29:00,40.2,39.4,30.21,SW,217,0.0,0.0,97,0.00,,,0.01,Wunderground v.1.15,2013-01-14 04:29:00,
2013-01-13 23:34:00,39.5,38.7,30.22,SW,222,0.0,0.0,97,0.00,,,0.01,Wunderground v.1.15,2013-01-14 04:34:00,
2013-01-13 23:40:00,39.5,38.7,30.22,West,277,0.0,0.0,97,0.00,,,0.01,Wunderground v.1.15,2013-01-14 04:40:00,
2013-01-13 23:45:00,39.5,38.7,30.21,West,276,0.0,0.0,97,0.00,,,0.01,Wunderground v.1.15,2013-01-14 04:45:00,
2013-01-13 23:51:00,39.5,38.7,30.20,West,276,0.0,0.0,97,0.00,,,0.01,Wunderground v.1.15,2013-01-14 04:51:00,
2013-01-13 23:56:00,39.4,38.6,30.21,West,276,0.0,0.0,97,0.00,,,0.01,Wunderground v.1.15,2013-01-14 04:56:00,